User: anonymous   Login
Location: Newark
(56.0692°N, 115.8617°E)
Time: 16:39:23
(UTC+00:00)
Language:

N. Korean satellite - Orbit

View from above orbital plane
View from above orbital plane
View from above satellite
View from above satellite

Ground track
Ground track

The orbit data is extracted from the following two-line orbital elements,

1 39026U 12072A   21267.92929234  .00006065  00000-0  20234-3 0  9991
2 39026  97.2520 258.4431 0036117  32.4749 327.8705 15.30794874488247
Epoch (UTC): 24 September 2021 22:18:10
Eccentricity: 0.0036117
inclination: 97.2520°
perigee height: 449 km
apogee height: 498 km
right ascension of ascending node: 258.4431°
argument of perigee: 32.4749°
revolutions per day: 15.30794874
mean anomaly at epoch: 327.8705°
orbit number at epoch: 48824

The dashed part of the orbit path shows where the satellite is in the earth's shadow,  

DLR